TimeEST,TemperatureF,Dew PointF,Humidity,Sea Level PressureIn,VisibilityMPH,Wind Direction,Wind SpeedMPH,Gust SpeedMPH,PrecipitationIn,Events,Conditions,WindDirDegrees,DateUTC
12:54 AM,39.0,34.0,82,30.25,8.0,WNW,6.9,-,N/A,,Scattered Clouds,300,2012-02-16 05:54:00
1:54 AM,37.0,30.9,79,30.25,8.0,NW,5.8,-,N/A,,Clear,310,2012-02-16 06:54:00
2:54 AM,37.0,30.0,76,30.24,10.0,WNW,8.1,-,N/A,,Clear,300,2012-02-16 07:54:00
3:54 AM,35.1,28.0,76,30.24,10.0,NW,4.6,-,N/A,,Clear,310,2012-02-16 08:54:00
4:54 AM,36.0,28.9,76,30.26,10.0,WNW,6.9,-,N/A,,Partly Cloudy,290,2012-02-16 09:54:00
5:54 AM,36.0,28.9,76,30.27,10.0,WNW,6.9,-,N/A,,Partly Cloudy,290,2012-02-16 10:54:00
6:54 AM,35.1,28.0,76,30.26,10.0,Calm,Calm,-,N/A,,Partly Cloudy,0,2012-02-16 11:54:00
7:54 AM,37.9,28.9,70,30.27,10.0,NW,5.8,-,N/A,,Scattered Clouds,320,2012-02-16 12:54:00
8:54 AM,39.9,28.9,65,30.28,10.0,NW,8.1,-,N/A,,Mostly Cloudy,310,2012-02-16 13:54:00
9:54 AM,42.1,30.0,62,30.27,10.0,WNW,5.8,-,N/A,,Overcast,300,2012-02-16 14:54:00
10:54 AM,43.0,30.0,60,30.25,10.0,Calm,Calm,-,N/A,,Overcast,0,2012-02-16 15:54:00
11:54 AM,43.0,30.0,60,30.22,10.0,SE,4.6,-,N/A,,Overcast,140,2012-02-16 16:54:00
12:54 PM,43.0,30.0,60,30.19,10.0,ESE,4.6,-,N/A,,Overcast,120,2012-02-16 17:54:00
1:54 PM,44.1,30.9,60,30.16,10.0,SE,4.6,-,N/A,,Overcast,130,2012-02-16 18:54:00
2:54 PM,44.1,30.9,60,30.15,10.0,East,5.8,-,N/A,,Overcast,80,2012-02-16 19:54:00
3:54 PM,41.0,33.1,73,30.15,10.0,ESE,9.2,-,N/A,,Overcast,120,2012-02-16 20:54:00
4:54 PM,39.9,35.1,83,30.13,8.0,SE,5.8,-,0.00,,Overcast,130,2012-02-16 21:54:00
5:54 PM,43.0,32.0,65,30.13,10.0,SE,5.8,-,0.00,Rain,Light Rain,130,2012-02-16 22:54:00
6:54 PM,41.0,35.1,79,30.12,10.0,SSW,8.1,-,0.00,,Overcast,210,2012-02-16 23:54:00
7:54 PM,39.9,35.1,83,30.11,9.0,South,5.8,-,0.00,,Overcast,190,2012-02-17 00:54:00
8:54 PM,39.0,36.0,89,30.09,5.0,SSE,5.8,-,0.01,Rain,Light Rain,160,2012-02-17 01:54:00
9:16 PM,39.2,35.6,87,30.09,4.0,SSE,5.8,-,0.01,Rain,Light Rain,160,2012-02-17 02:16:00
9:54 PM,39.0,37.0,93,30.09,4.0,South,8.1,-,0.02,Rain,Light Rain,190,2012-02-17 02:54:00
10:09 PM,39.2,37.4,93,30.08,5.0,SSW,10.4,-,0.00,Rain,Light Rain,200,2012-02-17 03:09:00
10:54 PM,39.0,36.0,89,30.07,7.0,SSW,12.7,-,0.01,Rain,Light Rain,200,2012-02-17 03:54:00
11:54 PM,37.9,35.1,89,30.05,7.0,SSW,10.4,-,0.00,Rain,Light Rain,200,2012-02-17 04:54:00